Tracking 28052 objects as of 25-Sep-2023
HD Live streaming from Space Station
objects crossing your sky now

COSMOS 2088

Track COSMOS 2088 now!
10-day predictions
COSMOS 2088 is classified as:


NORAD ID: 20720
Int'l Code: 1990-066A
Perigee: 1,489.8 km
Apogee: 1,531.2 km
Inclination: 73.6 °
Period: 116.1 minutes
Semi major axis: 7881 km
RCS: 11.4565 m2 (large)
Launch date: July 30, 1990
Source: Commonwealth of Independent States (former USSR) (CIS)
Launch site: PLESETSK MISSILE AND SPACE COMPLEX (PKMTR)
Your satellite tracking list
Your tracking list is empty




NASA's NSSDC Master Catalog

Two Line Element Set (TLE):
1 20720U 90066A   23267.50737632 -.00000012  00000-0  36913-4 0  9995
2 20720  73.5954 286.7944 0026275 246.7435 268.0188 12.40758868501524
Source of the keplerian elements: AFSPC